sat.trackr.live / text

‹ back to catalog

STARLINK-35343

NORAD 67334 · 2026-003A

PAYLOAD ACTIVE UNKNOWN

§ Identity

Operator
Country
US
Launch date
2026-01-09
Launch site
AFETR
Launch vehicle
Mass (kg)
RCS (m²)

Purposes: comms

External: N2YO · Heavens-Above · Gunter

§ Orbital elements

Epoch: 2026-09-19T07:13:09.729984Z

Period
94.27 min
Inclination
42.9998°
Eccentricity
0.0000991
Mean motion
15.27591139 rev/d
Perigee alt
482.3 km
Apogee alt
483.7 km
Semi-major
6,861.2 km
B*
4.2989e-4
RAAN
213.7038°
Arg perigee
284.9555°
Mean anomaly
75.1187°
Rev number
3,843

§ Raw data

STARLINK-353431 67334U 26003A   26262.30080706  .00011590  00000+0  42989-3 0  99962 67334  42.9998 213.7038 0000991 284.9555  75.1187 15.27591139 38437

JSON: /api/v1/satellites/67334 · /tle

For live sub-satellite position, see the globe view (requires WebGL).

§ Visibility from observer

Set your observer location to see the next 7 days of passes ≥ 10°. The values pass through the URL so the page stays shareable.

No JS? Fill the form by hand. The geolocation button needs JavaScript.